TimeCDT,TemperatureF,Dew PointF,Humidity,Sea Level PressureIn,VisibilityMPH,Wind Direction,Wind SpeedMPH,Gust SpeedMPH,PrecipitationIn,Events,Conditions,WindDirDegrees,DateUTC
12:56 AM,32.9,32.9,100,30.43,10.0,Calm,Calm,-,N/A,,Clear,0,2013-10-14 05:56:00
1:56 AM,32.0,32.0,100,30.45,10.0,Calm,Calm,-,N/A,,Clear,0,2013-10-14 06:56:00
2:56 AM,31.1,31.1,100,30.44,10.0,Calm,Calm,-,N/A,,Clear,0,2013-10-14 07:56:00
3:56 AM,30.0,30.0,100,30.44,10.0,Calm,Calm,-,N/A,,Clear,0,2013-10-14 08:56:00
4:56 AM,30.0,30.0,100,30.45,10.0,Calm,Calm,-,N/A,,Clear,0,2013-10-14 09:56:00
5:56 AM,29.1,29.1,100,30.45,10.0,Calm,Calm,-,N/A,,Clear,0,2013-10-14 10:56:00
6:56 AM,28.0,28.0,100,30.45,10.0,Calm,Calm,-,N/A,,Clear,0,2013-10-14 11:56:00
7:56 AM,32.0,32.0,100,30.45,10.0,Calm,Calm,-,N/A,,Clear,0,2013-10-14 12:56:00
8:56 AM,41.0,41.0,100,30.44,10.0,NE,3.5,-,N/A,,Clear,50,2013-10-14 13:56:00
9:56 AM,48.9,41.0,74,30.43,10.0,Calm,Calm,-,N/A,,Clear,0,2013-10-14 14:56:00
10:56 AM,55.9,39.9,55,30.42,10.0,ESE,6.9,-,N/A,,Clear,110,2013-10-14 15:56:00
11:56 AM,59.0,36.0,42,30.41,10.0,East,9.2,-,N/A,,Clear,90,2013-10-14 16:56:00
12:56 PM,59.0,37.4,45,30.37,10.0,ESE,8.1,-,N/A,,Clear,120,2013-10-14 17:56:00
5:56 PM,54.9,41.9,62,30.24,10.0,East,4.6,-,N/A,,Clear,90,2013-10-14 22:56:00
6:56 PM,52.9,39.9,61,30.25,10.0,ESE,6.9,-,N/A,,Clear,110,2013-10-14 23:56:00
7:56 PM,50.0,39.9,68,30.25,10.0,ESE,4.6,-,N/A,,Clear,120,2013-10-15 00:56:00
8:56 PM,46.9,39.9,77,30.24,10.0,East,4.6,-,N/A,,Clear,90,2013-10-15 01:56:00
9:56 PM,45.9,41.0,83,30.21,10.0,East,5.8,-,N/A,,Clear,80,2013-10-15 02:56:00
10:56 PM,45.0,41.9,89,30.19,10.0,East,5.8,-,N/A,,Clear,80,2013-10-15 03:56:00
11:56 PM,43.9,43.9,100,30.15,10.0,ENE,4.6,-,N/A,,Clear,70,2013-10-15 04:56:00